Location: Caltech
(34.1382°N, 118.1253°W)
Time: 12:25:34
(UTC-07:00)

Cosmos 2237 Rocket - Visible Passes

Search period start: 26 April 2017 00:00
Search period end: 06 May 2017 00:00
Orbit: 834 x 851 km, 71.0° (Epoch: 25 April)

Date Brightness Start Highest point End Pass type
(mag) Time Alt. Az. Time Alt. Az. Time Alt. Az.
26 Apr 4.8 00:49:57 13° NW 00:49:57 13° NW 00:51:34 10° NNW visible
26 Apr 4.0 22:52:57 22° NNE 22:52:57 22° NNE 22:54:56 10° NNE visible
27 Apr 4.7 00:34:43 14° NW 00:34:43 14° NW 00:36:54 10° NNW visible
27 Apr 3.7 22:37:35 27° NNE 22:37:35 27° NNE 22:40:04 10° NNE visible
28 Apr 4.7 00:19:20 15° NW 00:19:20 15° NW 00:22:13 10° NNW visible
28 Apr 3.3 22:22:05 33° NE 22:22:05 33° NE 22:25:13 10° NNE visible
29 Apr 4.6 00:03:49 16° WNW 00:04:05 16° NW 00:07:31 10° NNW visible
29 Apr 2.8 22:06:21 44° NE 22:06:21 44° NE 22:10:21 10° NNE visible
29 Apr 4.5 23:48:05 16° WNW 23:49:12 17° WNW 23:52:49 10° NNW visible
30 Apr 2.3 21:50:19 57° E 21:50:19 57° E 21:55:29 10° NNE visible
30 Apr 4.6 23:32:01 14° W 23:34:20 18° WNW 23:38:06 10° NNW visible
01 May 2.2 21:33:45 45° SSE 21:35:04 55° ESE 21:40:37 10° NNE visible
01 May 4.5 23:15:33 10° W 23:19:27 19° WNW 23:23:23 10° NNW visible
02 May 2.3 21:15:58 17° S 21:20:14 52° ESE 21:25:45 10° NNE visible
02 May 4.5 23:00:33 10° WSW 23:04:34 20° WNW 23:08:38 10° NNW visible
03 May 2.4 20:59:57 10° S 21:05:25 49° ESE 21:10:53 10° NNE visible
03 May 4.5 22:45:32 10° WSW 22:49:42 21° WNW 22:53:54 10° N visible
04 May 2.4 20:45:11 10° S 20:50:34 46° ESE 20:56:00 10° NE visible
04 May 4.5 22:30:33 10° WSW 22:34:50 22° WNW 22:39:09 10° N visible
05 May 2.5 20:30:24 10° S 20:35:45 44° ESE 20:41:07 10° NE visible
05 May 4.5 22:15:33 10° WSW 22:19:58 23° WNW 22:24:23 10° N visible
